Regional Weather Roundup
Issued by NWS Grand Forks, ND

Home | Current Version | Previous Version | Text Only | Print | Product List | Glossary Off
Versions: 1 2 3 4 5 6 7 8 9 10 11 12 13 14 15 16 17 18 19 20 21 22 23 24 25 26 27 28 29 30 31 32 33 34 35 36 37 38 39 40 41 42 43 44 45 46 47 48 49 50

000
ASUS43 KFGF 211410
RWRFGF
PRAIRIE TO PINES  WEATHER ROUNDUP
NATIONAL WEATHER SERVICE EASTERN NORTH DAKOTA/GRAND FORKS ND
900 AM CDT SAT OCT 21 2017

 **SATELLITE DATA USED TO AUGMENT SKY COVER AT AUTOMATED STATIONS**
 *****  WEATHER ACROSS EASTERN NORTH DAKOTA  *****

CITY           SKY/WX    TMP DP  RH WIND       PRES   REMARKS
GRAND FORKS    MOCLDY    61  57  87 SW12      29.39R
GRAND FRKS AFB FAIR      57  43  60 SW8       29.39R
DEVILS LAKE    FAIR      51  40  65 W18       29.38R
FARGO          CLOUDY    63  58  83 S16G30    29.42R
WAHPETON ARPT  NOT AVBL
$$

 ***** WEATHER ACROSS CENTRAL AND WESTERN NORTH DAKOTA  *****

CITY           SKY/WX    TMP DP  RH WIND       PRES   REMARKS
BISMARCK       RAIN      48  43  82 W22G29    29.54R
MINOT          FAIR      49  39  68 W20G29    29.44R
JAMESTOWN      FAIR      53  40  61 W21       29.44R
MINOT AFB      FAIR      47  38  70 W24G38    29.41R
GARRISON         N/A     48  39  71 W28G36    29.50R
WILLISTON      MOCLDY    46  37  71 SW15      29.51R
DICKINSON      CLOUDY    47  35  63 W29G41    29.56R
HETTINGER      FAIR      46  29  51 W30G37    29.63R
$$

 *****  OTHER AIRPORT OBSERVATIONS IN OUR AREA  *****

CITY           SKY/WX    TMP DP  RH WIND       PRES   REMARKS
WALHALLA       FAIR     N/A N/A N/A SW9G16    29.32R
GRAFTON AIRPOR FAIR      55  43  62 SW12G18   29.39R
VALLEY CITY AR FAIR      52  41  66 W13       29.46R
CANDO          FAIR      50  39  66 W21G26    29.37S
CAVALIER APRT  FAIR      55  48  76 SW10      29.33R
GWINNER        SUNNY     55  50  82 W8        29.47R
SHEYENNE NWR     N/A     62  58  86 W6        29.95S
ROLLA          FAIR      50  37  62 W21G28    29.31R
 ***** THE ABOVE OBSERVATIONS ARE NON NWS ARE NOT QUALITY
       CONTROLLED AND MAY MIS-REPORT RAIN FOR SNOW...
$$

  *****  WEATHER ACROSS NORTHERN MINNESOTA  *****

CITY           SKY/WX    TMP DP  RH WIND       PRES   REMARKS
FLAG ISLAND    FAIR      57  52  82 SE20      29.42S
WARROAD        FAIR      63  57  82 S16G23    29.43S
ROSEAU         FAIR      63  57  82 S16       29.40S
HALLOCK        MOCLDY    64  57  77 S20G29    29.34R
THF RVR FALLS  CLOUDY    63  57  82 S20G25    29.44
BAUDETTE       FAIR      63  56  78 S15G23    29.46S
WASKISH        PTSUNNY   63  57  82 SE10G17   29.50R
CROOKSTON      CLOUDY    64  57  77 S18G24    29.41R
STEPHEN NDAWN    N/A     64  57  77 S21         N/A
GREENBUSH NDAW   N/A     64  57  77 S20         N/A
$$
  *****  WEATHER ACROSS CENTRAL AND WEST MINNESOTA  *****

CITY           SKY/WX    TMP DP  RH WIND       PRES   REMARKS
FOSSTON        FAIR      63  55  77 S18       29.46R
BEMIDJI        CLOUDY    63  56  80 SE16      29.51R
PARK RAPIDS    CLOUDY    63  57  81 S17G29    29.53R
ELBOW LAKE     CLOUDY    61  57  87 SE18      29.50S
WADENA         CLOUDY    61  55  82 S14G22    29.53S
DETROIT LAKES  PTSUNNY   63  55  77 S14       29.50R
MOORHEAD       MOCLDY    63  57  82 S22G31    29.44R
FERGUS FALLS   PTSUNNY   63  55  77 S18       29.49S
MORRIS MN      FAIR      63  57  82 S14       29.50S
STAPLES        CLOUDY    61  54  77 S14       29.56S
$$
  *****  WEATHER ELSEWHERE ACROSS MINNESOTA  *****

CITY           SKY/WX    TMP DP  RH WIND       PRES   REMARKS
DULUTH         CLOUDY    61  52  72 S17G23    29.69R
INTRNTL FALLS  PTSUNNY   63  53  70 S13G21    29.55S
ELY            CLOUDY    61  50  67 S12       29.68R
CLOQUET        CLOUDY    63  50  63 S10       29.68S
WHEATON        PTSUNNY   63  55  77 SE15      29.49R
BRAINERD       CLOUDY    61  54  77 S14G23    29.60S
HIBBING        CLOUDY    60  52  74 S12G20    29.64R
ALEXANDRIA     CLOUDY    62  57  83 S17       29.54F
SAINT CLOUD    LGT RAIN  60  59  96 S14       29.62R
MINNEAPOLIS    LGT RAIN  61  59  93 S17       29.69S
$$

  *****  WEATHER ACROSS SOUTH DAKOTA  *****

CITY           SKY/WX    TMP DP  RH WIND       PRES   REMARKS
SIOUX FALLS    PTSUNNY   65  62  90 S17G26    29.52S
BROOKINGS      CLOUDY    63  59  87 S16       29.51R
WATERTOWN      CLOUDY    61  59  93 S10       29.48R
HURON          CLOUDY    56  44  64 NW21      29.52R
SISSETON         N/A     63  58  83 SE8       29.47R
ABERDEEN       FAIR      54  41  61 NW17G25   29.51R
MITCHELL       CLOUDY    61  46  57 NW28G38   29.52R
PIERRE         FAIR      50  41  71 NW15      29.61R
MOBRIDGE       FAIR      50  41  71 NW17G28   29.58R
RAPID CITY     FAIR      48  24  39 NW20G30   29.70R
$$

  *****  SOME WEATHER IN NEARBY STATES *****

CITY           SKY/WX    TMP DP  RH WIND       PRES   REMARKS
GLASGOW MT     CLOUDY    43  39  86 W24G32    29.63R
GREAT FALLS MT FAIR      36  24  62 SW15      29.82R
CHEYENNE WY    FAIR      35  17  47 W22G28    29.93R WCI  23
SCOTTSBLUFF NE FAIR      45  22  40 W16       29.86R
OMAHA NE       CLOUDY    69  61  75 S16       29.66R
DES MOINES IA  CLOUDY    66  58  75 S18G24    29.79R
DAVENPORT IA   FAIR      65  52  62 S18G24    29.97S
CHICAGO IL     CLOUDY    62  49  62 S16G24    30.07R
EAU CLAIRE WI  CLOUDY    59  55  87 S10       29.82R
LA CROSSE WI   LGT RAIN  64  55  72 S15       29.86R
$$

  *****  SOME NATIONAL WEATHER *****

CITY           SKY/WX    TMP DP  RH WIND       PRES   REMARKS
LA GUARDIA NY  FAIR      65  46  50 CALM      30.33S
RALEIGH NC     FAIR      64  55  72 VRB5      30.35R
ATLANTA GA     PTSUNNY   61  52  72 E6        30.31R
NEW ORLEANS LA PTSUNNY   78  72  81 E14       30.06R
OKLAHOMA CITY  CLOUDY    69  65  86 S20       29.85R
ALBUQUERQUE NM MOCLDY    56  34  43 W13       29.97R
SALT LAKE CITY FAIR      39  29  67 SW5       30.15R
LOS ANGELES CA FAIR      62  43  49 N6        30.01R
BOISE ID       FAIR      35  31  85 SE7       30.13S
SEATTLE WA     LGT RAIN  45  43  93 E9        29.79F
$$

*** WEATHER ACROSS MANITOBA...SASKATCHEWAN AND ONTARIO ***
                ***ONTARIO***

CITY           SKY/WX    TMP DP  RH WIND       PRES   REMARKS
GERALDTON      PTSUNNY   55  48  76 S12G17    29.81F
THUNDER BAY    PTSUNNY   57  50  77 E3        29.76R
SIOUX LOOKOUT  PTSUNNY   57  52  82 S7        29.57F
TORONTO        PTSUNNY   59  52  77 S3        30.25F
BIG TROUT LK   CLOUDY    39  36  87 SE14G26   29.67F
PICKLE LAKE    PTSUNNY   54  46  76 SE13G20   29.62S
DRYDEN         CLOUDY    59  52  77 SE14      29.54S
KENORA         MOCLDY    61  54  77 S15G21    29.46F
$$
                *** MANITOBA***

CITY           SKY/WX    TMP DP  RH WIND       PRES   REMARKS
BRANDON        MOCLDY    45  39  81 W16       29.27R
DAUPHIN        CLEAR     46  45  93 W8        29.20R
ISLAND LAKE    MOCLDY    52  46  82 SE15      29.35F
PILOT MOUND      N/A     48  39  71 W12         N/A
THE PAS        MOCLDY    41  37  87 N9        29.26R
THOMPSON       MOCLDY    37  36  93 NE8       29.30S
WINNIPEG       PTCLDY    64  57  77 S20G29    29.29R
LYNN LAKE      CLOUDY    34  34 100 N6        29.37S FOG
CHURCHILL      LGT RAIN  36  34  93 SE28G37   29.56F
GILLAM         CLOUDY    39  34  81 SE9G20    29.44F
$$
                ***SASKATCHEWAN***

CITY           SKY/WX    TMP DP  RH WIND       PRES   REMARKS
ESTEVAN        MOCLDY    45  37  76 W14G23    29.42R
KINDERSLEY     MOCLDY    39  36  87 NW13      29.57R
LLOYDMINSTER   CLOUDY    37  32  81 NW12G18   29.55R
PRINCE ALBERT  CLOUDY    41  36  81 NW8       29.40R
REGINA         CLOUDY    43  39  87 W17G24    29.40R
YORKTON        CLOUDY    43  39  87 W14G20    29.27S
N. BATTLEFORD  LGT RAIN  41  39  93 NW16G23   29.52R
LA RONGE       DRIZZLE   37  36  93 NW9       29.40F
SASKATOON      LGT RAIN  43  37  81 NW13      29.43R
SWIFT CURRENT  LGT RAIN  39  37  93 W28G36    29.54R
$$
NOTE: THESE ARE AUTOMATED STATIONS WITH LIMITED QUALITY CONTROL
      "FAIR" INDICATES FEW OR NO CLOUDS BELOW 12,000 FEET WITH NO
      SIGNIFICANT WEATHER AND/OR OBSTRUCTIONS TO VISIBILITY.
      SKY/WX - SKY CONDITION AND SIGNIFICANT WEATHER.
      TMP - AIR TEMPERATURE.    DP   - DEWPOINT TEMPERATURE.
      RH  - RELATIVE HUMIDITY.  PRES - PRESSURE.
      HX  - HEAT INDEX.         WCI  - WIND CHILL INDEX.
$




USA.gov is the U.S. government's official web portal to all federal, state and local government web resources and services.